Air Force Academy, CO

6:40 AM MDT on April 19, 2018 (GMT -0600)
Usaf Academy

Weather History for KAFF - April, 2014

Change the Weather History Date:

Monday, April 21, 2014

  Actual Average Record
Temperature  
Mean Temperature 51 °F -  
Max Temperature 62 °F 53 °F 72 °F (2012)
Min Temperature 41 °F 30 °F 26 °F (1998)
Degree Days  
Heating Degree Days 14    
Growing Degree Days 1 (Base 50)    
Moisture  
Dew Point 31 °F    
Average Humidity 45    
Maximum Humidity 80    
Minimum Humidity 29    
Precipitation  
Precipitation 0.00 in - - ()
Sea Level Pressure  
Sea Level Pressure 30.16 in    
Wind  
Wind Speed 12 mph (ESE)    
Max Wind Speed 23 mph    
Max Gust Speed 29 mph    
Visibility 10 miles    
Events Rain    
Averages and records for this station are not official NWS values.
T = Trace of Precipitation, MM = Missing Value Source: NWS Daily Summary

Daily Weather History Graph

Daily Weather History Graph

Search for Another Location

Airport or City:

Astronomy

Apr. 21, 2014 Rise Set
Actual Time 6:14 AM MDT 7:42 PM MDT
Civil Twilight 5:46 AM MDT 8:10 PM MDT
Nautical Twilight 5:12 AM MDT 8:44 PM MDT
Astronomical Twilight 4:37 AM MDT 9:19 PM MDT
Moon 1:13 AM MDT (4/21) 11:44 AM MDT (4/21)
Length of Visible Light 14h 24m
Length of Day
13h 28m
Waning Gibbous, 57% of the Moon is Illuminated
Apr 21
Waning Gibbous
Apr 22
Last Quarter
Apr 29
New
May 6
First Quarter
May 14
Full

Hourly Weather History & Observations

Time (MDT) Temp. Windchill Dew Point Humidity Pressure Visibility Wind Dir Wind Speed Gust Speed Precip Events Conditions
12:58 AM 43.0 °F 39.5 °F 37.2 °F 80% 30.06 in 10.0 mi North 5.8 mph - N/A   Mostly Cloudy
1:58 AM 41.4 °F 36.8 °F 35.2 °F 79% 30.07 in 10.0 mi NNW 6.9 mph - N/A   Partly Cloudy
2:58 AM 42.3 °F 39.4 °F 35.1 °F 76% 30.05 in 10.0 mi NNW 4.6 mph - N/A   Mostly Cloudy
3:58 AM 49.3 °F - 32.2 °F 52% 30.07 in 10.0 mi North 20.7 mph 28.8 mph N/A   Scattered Clouds
4:58 AM 44.6 °F 36.4 °F 33.3 °F 64% 30.12 in 10.0 mi NNW 20.7 mph - N/A   Partly Cloudy
5:58 AM 43.2 °F 35.6 °F 32.9 °F 67% 30.17 in 10.0 mi NNW 16.1 mph - N/A   Partly Cloudy
6:58 AM 41.5 °F 33.8 °F 33.3 °F 72% 30.20 in 10.0 mi North 15.0 mph - N/A   Clear
7:58 AM 45.3 °F 37.3 °F 31.3 °F 58% 30.19 in 10.0 mi North 20.7 mph - N/A   Clear
8:58 AM 49.5 °F - 28.9 °F 45% 30.19 in 10.0 mi North 23.0 mph - N/A   Partly Cloudy
9:58 AM 53.1 °F - 31.3 °F 43% 30.18 in 10.0 mi NNE 12.7 mph - N/A   Clear
10:58 AM 55.4 °F - 31.3 °F 40% 30.19 in 10.0 mi South 2.3 mph - N/A   Clear
11:58 AM 58.1 °F - 31.1 °F 36% 30.20 in 10.0 mi SSE 11.5 mph 19.6 mph N/A   Partly Cloudy
12:58 PM 56.7 °F - 30.4 °F 37% 30.20 in 10.0 mi South 11.5 mph 19.6 mph N/A   Partly Cloudy
1:31 PM 59.0 °F - 30.2 °F 34% 30.29 in 10.0 mi South 15.0 mph 19.6 mph N/A   Partly Cloudy
1:58 PM 60.4 °F - 29.7 °F 31% 30.15 in 10.0 mi SSE 16.1 mph 23.0 mph N/A   Partly Cloudy
1:59 PM 60.8 °F - 30.2 °F 31% 30.28 in 10.0 mi SSE 17.3 mph 23.0 mph N/A   Partly Cloudy
2:28 PM 60.8 °F - 28.4 °F 29% 30.26 in 10.0 mi South 17.3 mph 21.9 mph N/A   Partly Cloudy
2:58 PM 61.7 °F - 29.5 °F 30% 30.13 in 10.0 mi SSE 15.0 mph 25.3 mph N/A   Clear
3:58 PM 59.2 °F - 28.0 °F 31% 30.11 in 10.0 mi East 8.1 mph - N/A   Partly Cloudy
4:17 PM 59.0 °F - 30.2 °F 34% 30.26 in 10.0 mi SE 8.1 mph - N/A Rain Light Rain
4:44 PM 57.2 °F - 32.0 °F 38% 30.25 in 10.0 mi East 12.7 mph 18.4 mph N/A   Partly Cloudy
4:46 PM 57.2 °F - 32.0 °F 38% 30.25 in 10.0 mi SE 12.7 mph 18.4 mph N/A   Partly Cloudy
4:58 PM 57.2 °F - 31.8 °F 38% 30.12 in 10.0 mi East 9.2 mph - 0.00 in   Partly Cloudy
5:46 PM 60.8 °F - 28.4 °F 29% 30.25 in 10.0 mi SSE 12.7 mph - N/A   Partly Cloudy
5:58 PM 60.3 °F - 28.8 °F 30% 30.11 in 10.0 mi SSE 12.7 mph 17.3 mph N/A   Partly Cloudy
6:00 PM 59.0 °F - 28.4 °F 31% 30.24 in 10.0 mi SE 11.5 mph - N/A   Partly Cloudy
6:58 PM 58.1 °F - 29.3 °F 33% 30.13 in 10.0 mi South 12.7 mph - N/A   Clear
7:58 PM 55.2 °F - 28.9 °F 37% 30.12 in 10.0 mi SSE 16.1 mph - N/A   Clear
8:58 PM 53.1 °F - 30.6 °F 42% 30.11 in 10.0 mi SSE 12.7 mph - N/A   Clear
9:58 PM 50.7 °F - 31.1 °F 47% 30.12 in 10.0 mi SE 5.8 mph - N/A   Clear
10:58 PM 50.2 °F - 30.6 °F 47% 30.10 in 10.0 mi SE 9.2 mph - N/A   Clear
11:58 PM 48.0 °F - 30.0 °F 50% 30.09 in 10.0 mi SE 5.8 mph - N/A   Clear